Pagina principale
METAR-TAF:

METAR-TAF

Aeroporti :

Waterbury-Oxford Airport

Oxford, Connecticut, Stati Uniti

latitudine: 41-29N, longitudine: 073-08W, altezza: 222 m

Osservazione

Il bollettino è stato emesso 28 minuti fa, alle 07:51 UTC
Vento calmo
Temperature 21°C
Umidità 88%
Pressione 1016 hPa
Visibilità: 14.5 km
Cielo sereno

METAR: KOXC 160751Z AUTO 00000KT 9SM CLR 21/19 A3001 RMK AO2 SLP168 T02060194

Ora: 04:19 (08:19 UTC)


TAF: mancante

Osservazioni e previsioni meteorologiche di più di 4000 aeroporti (messaggi METAR e TAF).

Le stazioni disponibili sono rappresentate dai dischi gialli e rossi sulla carta.

Puntare il mouse per vedere il nome della stazione.

Clicca sopra per visualizzare le osservazioni e previsioni meteorologiche.

Per cambiare la mappa : fare clic sui pulsanti verdi con una croce nera per ingrandire, il pulsante verde con un trattino per diminuire, o sulla freccia verde per le mappe adiacenti.


METAR-TAF: